Wind_Speed
3 4 5 5 5 6 4 2 6 7 7 7 7 7 7 7 7 7 8 7 7 7 6 6 6 6 6 6 7 7 6 5 5 4 4 4 4 4 4 3 3 3 3 3 3 2 2 2 2
3 3 4 4 5 4 2 4 8 8 7 7 7 7 8 7 7 7 7 7 7 7 6 6 6 6 6 7 7 7 6 5 5 5 5 5 5 4 4 3 2 2 3 3 3 3 2 2 2
3 3 3 4 2 2 3 6 8 10 8 8 8 7 8 8 7 7 8 8 8 7 6 6 6 6 7 7 7 7 6 6 5 5 5 4 5 4 3 3 2 1 2 3 3 3 3 3 2
4 4 4 2 1 2 5 7 8 10 10 9 8 8 8 8 8 8 8 8 8 7 7 7 7 7 7 7 7 7 6 6 5 5 5 5 5 4 4 2 2 1 1 2 2 2 3 3 2
4 3 3 2 3 4 8 8 9 10 11 10 9 8 7 7 8 8 8 8 8 8 7 7 7 7 7 7 7 7 6 6 6 6 5 5 5 4 4 3 2 1 1 2 2 2 3 3 3
3 2 3 3 5 7 10 9 9 12 11 9 9 9 8 7 7 8 8 8 8 8 7 6 7 7 7 7 7 7 7 6 6 6 6 5 5 5 4 3 1 0 1 1 1 2 3 3 3
5 5 5 6 7 9 11 10 9 10 10 9 9 9 9 9 8 8 9 8 8 8 8 7 7 7 7 7 7 7 7 6 6 6 6 6 6 5 4 3 2 1 1 2 2 2 3 3 4
6 6 6 6 6 9 12 11 10 9 10 9 9 9 10 9 9 9 9 9 9 9 8 8 8 8 8 8 7 7 7 7 7 7 7 6 6 6 5 4 3 2 2 2 3 4 4 4 4
6 7 5 7 8 10 12 11 11 10 11 10 10 10 11 10 10 9 9 9 9 10 9 9 9 9 9 9 8 8 8 8 8 8 8 7 7 7 6 5 4 3 3 3 3 4 5 5 5
7 7 7 10 11 12 12 11 12 10 10 11 11 11 11 11 10 11 10 10 10 11 11 11 11 12 11 11 9 9 9 9 9 9 9 8 8 8 7 6 5 4 4 5 5 5 6 6 6
9 10 11 11 13 14 14 12 13 12 11 12 12 12 12 11 12 12 11 10 10 11 11 12 13 13 13 13 11 10 10 10 10 10 10 9 9 8 8 7 6 6 6 6 6 7 7 7 7
11 12 13 12 14 16 16 13 13 14 13 13 13 13 13 12 12 12 12 11 11 12 12 12 13 13 13 13 12 11 11 10 10 10 10 10 9 9 9 8 7 7 8 7 7 7 8 8 7
12 13 13 13 15 16 16 14 15 15 14 15 15 15 14 12 13 12 13 13 13 13 13 13 13 13 13 13 12 12 12 11 11 10 10 10 9 9 9 8 7 7 7 7 6 6 7 9 7
13 14 14 14 15 15 15 14 16 16 16 16 17 16 14 12 13 13 13 13 14 14 14 14 14 14 14 14 13 13 13 12 11 11 11 11 10 10 9 9 8 8 7 7 7 6 6 7 8
14 14 15 14 14 15 15 15 15 16 16 17 18 17 15 13 14 14 14 14 15 14 15 15 15 14 15 14 13 13 13 13 12 11 11 11 10 10 10 10 9 9 8 8 7 7 7 7 8
14 14 15 14 15 16 16 15 15 17 17 17 17 17 17 15 14 15 15 15 16 16 16 16 16 15 15 14 13 13 14 14 13 12 12 12 11 10 10 10 10 9 9 9 9 8 9 8 9
13 14 15 15 16 16 16 16 16 19 17 18 18 17 16 14 15 15 16 17 17 17 16 16 16 16 16 15 15 14 14 14 14 13 13 13 11 11 11 11 10 10 10 10 9 9 9 9 9
11 13 15 16 16 17 18 17 18 18 17 18 17 17 16 16 16 16 17 18 18 18 17 17 17 17 16 16 16 15 15 15 15 15 14 13 12 12 12 12 11 11 11 11 10 10 11 11 11
14 14 16 16 17 19 18 18 19 17 19 18 18 19 18 17 19 18 18 18 18 19 18 18 18 17 16 16 16 16 15 15 15 15 15 14 13 13 12 12 12 11 11 12 12 11 12 11 12
15 16 18 19 19 20 20 19 19 18 19 19 20 21 20 20 21 21 21 19 19 19 19 18 17 17 17 17 17 17 16 16 16 16 16 15 14 13 13 12 12 12 12 12 12 12 12 12 12
17 18 18 19 18 19 20 19 19 19 19 19 20 21 22 23 23 22 21 20 20 20 20 19 18 18 18 18 18 18 17 17 17 17 17 17 16 15 15 14 14 14 13 13 13 13 13 13 13
17 17 18 19 19 19 19 20 19 19 20 20 20 21 21 22 23 22 22 21 21 21 21 20 19 19 19 19 18 18 19 19 18 18 18 18 18 17 16 17 17 16 15 14 14 14 14 14 13
17 16 17 18 18 19 19 20 19 21 21 21 21 21 21 23 24 23 22 22 22 21 21 20 20 20 20 19 19 19 19 19 19 19 19 19 19 18 18 17 17 17 16 16 16 16 16 15 15
17 16 16 16 17 20 19 20 20 21 22 22 22 23 23 23 24 24 23 23 22 22 22 21 21 21 21 20 20 20 20 20 20 19 18 19 19 19 18 17 17 17 17 17 17 17 17 17 16
16 15 15 16 18 19 19 20 20 21 22 23 23 24 25 24 24 24 24 23 23 23 22 22 21 21 21 21 22 21 21 21 20 20 19 19 19 18 18 18 18 18 18 19 18 18 18 18 17
15 15 16 17 16 18 19 19 21 21 22 23 25 26 25 25 25 24 23 23 24 23 23 23 22 22 22 22 22 22 21 21 21 20 19 19 19 18 18 18 19 19 19 19 19 19 20 20 19
16 16 16 18 18 19 20 21 22 24 24 25 26 26 26 26 25 24 24 24 25 24 24 24 24 24 23 23 23 23 22 22 21 20 20 20 20 18 18 18 18 19 19 19 20 20 21 21 21
18 17 18 20 20 20 19 21 23 26 25 27 28 27 26 26 26 26 25 25 25 25 25 26 26 25 25 25 24 24 23 22 22 20 20 19 20 20 19 19 19 18 19 20 20 20 20 21 21
17 18 19 20 21 22 21 21 24 25 26 27 27 26 25 26 26 26 26 26 25 26 27 27 26 26 26 26 26 25 24 23 22 21 21 21 22 22 21 21 21 20 20 20 20 19 19 20 20
17 19 20 22 22 23 23 25 27 27 27 27 26 27 26 26 26 27 27 27 27 27 28 27 26 26 27 27 26 26 26 25 24 23 22 22 23 23 23 22 22 22 22 21 21 21 20 20 20
Wind_Direction
101 96 98 95 89 80 52 334 297 303 311 322 323 323 317 323 324 327 331 334 341 345 351 356 357 355 348 342 338 333 327 326 323 318 312 311 307 302 312 310 277 259 238 214 205 204 213 191 182
121 121 119 89 62 50 27 285 288 297 312 323 322 320 319 329 327 326 330 335 337 340 345 348 351 348 344 343 339 338 330 325 321 319 317 312 306 309 325 322 290 255 223 205 204 206 205 183 172
142 141 123 92 51 2 299 286 290 298 309 313 317 316 317 326 328 331 333 335 336 338 338 342 343 342 338 337 335 329 329 324 321 322 322 316 309 311 325 346 344 270 223 208 200 203 200 192 189
166 144 119 103 298 300 285 287 291 297 306 308 312 315 315 322 326 329 329 332 329 330 334 335 337 336 335 335 334 334 329 326 323 321 322 316 312 315 326 333 354 324 226 206 208 204 197 202 210
176 153 154 222 269 262 270 280 288 294 302 306 306 302 305 316 324 326 327 329 329 330 335 338 337 336 334 334 334 332 330 328 326 322 321 314 311 313 318 321 331 353 188 196 207 220 201 208 212
183 201 216 230 256 255 267 276 284 289 298 301 301 304 307 317 324 327 330 332 331 334 334 339 337 337 334 331 331 329 326 325 326 324 319 315 312 315 316 316 331 223 234 227 225 223 223 222 215
199 224 239 239 249 254 266 274 281 287 294 292 298 300 306 315 319 325 327 329 331 337 333 338 336 333 330 328 327 322 320 320 321 320 317 318 315 317 317 302 300 295 290 229 218 214 218 214 207
197 229 238 247 250 255 270 276 279 280 285 288 293 298 304 311 315 322 321 324 329 330 330 331 335 334 329 324 320 316 316 314 317 314 311 311 311 314 315 300 277 282 286 262 240 228 225 218 214
209 226 233 236 246 257 269 273 275 282 282 286 293 298 300 306 310 312 313 318 325 324 324 327 329 328 323 319 315 313 313 314 313 310 306 304 304 306 307 304 286 273 270 267 256 233 222 221 223
226 233 236 238 240 248 257 266 275 281 279 281 292 300 301 302 306 305 305 315 323 322 320 322 325 323 319 315 311 311 309 309 310 308 304 299 297 298 294 292 297 283 267 262 261 253 238 233 236
235 237 234 242 247 248 256 264 274 275 272 276 286 289 291 297 301 306 305 309 313 314 315 317 320 321 318 317 313 311 309 307 306 304 300 297 293 292 290 285 295 290 280 275 270 257 247 249 252
240 242 239 241 249 254 256 261 269 271 270 280 286 289 289 292 293 297 305 308 306 306 306 312 315 315 316 315 312 310 311 310 308 306 303 299 294 289 289 289 282 281 280 281 278 266 253 256 253
240 246 245 247 253 260 263 263 266 268 271 275 276 277 285 289 290 293 297 301 302 303 305 309 311 310 312 312 311 312 311 308 308 306 305 304 302 293 292 298 289 285 286 281 272 268 260 258 258
242 249 252 256 260 265 266 267 269 268 273 276 280 281 284 287 288 291 293 296 299 301 303 304 306 307 308 309 308 309 311 308 307 308 305 303 301 296 291 293 289 289 283 276 268 264 266 265 262
243 250 256 260 269 269 269 269 266 270 273 274 279 279 280 282 282 287 291 295 298 298 300 302 302 304 306 306 304 305 308 311 308 308 308 306 302 296 291 289 285 285 285 280 274 270 270 269 264
254 256 263 268 271 270 269 271 264 269 276 274 278 279 279 281 281 286 291 293 295 297 298 299 298 300 303 303 305 304 305 306 307 306 308 306 302 298 293 291 287 278 278 278 276 273 271 271 268
257 262 266 268 273 275 272 269 267 269 274 275 278 280 277 279 279 285 288 290 290 292 295 297 297 298 298 299 300 299 299 301 302 304 306 308 303 298 292 289 285 279 278 278 275 274 272 274 275
250 259 265 266 270 273 271 272 271 271 275 275 275 279 282 282 281 283 288 289 288 288 292 294 294 294 293 293 295 295 295 296 297 299 303 305 303 301 294 288 284 282 281 279 275 272 274 277 278
245 245 251 256 258 266 268 271 276 275 277 275 277 279 280 280 282 285 285 286 286 287 289 290 290 290 288 289 292 292 291 292 294 296 299 300 301 298 292 287 283 281 281 276 273 272 274 277 279
248 251 253 256 257 260 261 264 272 278 281 277 275 278 278 277 279 282 284 282 283 285 286 286 287 287 287 287 288 289 289 289 289 291 292 293 295 294 288 285 281 279 278 276 273 271 273 278 278
253 253 254 256 258 262 269 270 269 276 280 279 277 276 278 280 280 280 283 282 282 281 280 282 285 284 285 286 286 287 288 289 287 287 288 289 289 289 286 279 277 277 274 274 272 271 275 277 275
254 256 259 259 257 262 270 273 274 275 276 275 277 280 279 278 278 278 278 277 278 277 275 277 280 281 283 284 283 284 286 286 286 284 286 286 285 284 280 280 280 277 275 272 270 268 273 274 272
257 260 260 260 259 261 262 265 268 269 272 275 277 279 280 278 276 278 276 277 277 276 274 274 274 276 279 281 282 282 282 284 284 284 285 285 284 284 279 278 277 274 273 274 272 269 271 270 270
257 258 259 261 264 264 265 263 263 266 272 273 276 276 279 281 280 279 278 277 276 275 276 274 273 274 277 278 280 281 281 282 282 284 285 283 282 283 281 277 276 274 274 275 275 273 272 270 269
256 257 263 265 266 272 274 266 265 265 268 270 271 274 280 282 281 278 277 275 274 274 275 273 271 275 277 278 279 280 281 282 282 281 282 283 282 281 277 276 277 276 276 275 274 271 270 271 270
254 252 257 263 266 274 278 268 266 271 272 273 275 278 280 282 282 278 274 273 272 273 273 274 272 274 277 277 279 280 279 279 280 280 280 282 282 280 278 276 275 274 274 274 273 271 270 270 270
255 252 253 263 263 264 270 274 272 270 274 277 277 279 281 282 283 280 276 273 272 272 271 272 272 272 274 275 277 278 277 279 280 280 280 280 280 279 279 276 274 274 275 276 274 272 271 271 271
253 248 247 251 259 261 259 262 269 271 273 276 277 279 281 281 281 280 277 274 272 271 271 273 273 272 273 274 275 276 275 276 278 278 281 281 282 282 280 276 276 277 277 275 274 275 273 274 273
253 249 248 252 256 257 260 261 268 271 272 273 277 279 281 282 281 279 277 275 272 270 270 270 271 272 272 273 273 274 274 274 277 278 280 282 283 284 282 281 278 278 278 277 276 276 275 276 274
253 255 253 253 255 257 263 265 267 271 275 275 275 276 276 278 277 276 276 274 272 271 271 269 272 271 271 271 272 273 273 273 274 276 277 279 281 282 282 281 280 277 276 276 275 276 276 276 275
Height
5898 5899 5899 5900 5901 5901 5901 5902 5901 5899 5898 5897 5896 5894 5893 5893 5892 5893 5889 5887 5886 5885 5884 5883 5881 5880 5880 5879 5878 5877 5876 5875 5873 5873 5872 5871 5870 5868 5866 5864 5863 5863 5863 5864 5865 5866 5866 5867 5867
5898 5899 5900 5900 5900 5901 5901 5901 5900 5898 5898 5897 5896 5894 5893 5892 5891 5890 5888 5887 5886 5885 5884 5883 5882 5881 5880 5879 5878 5877 5876 5875 5873 5873 5872 5871 5869 5868 5866 5863 5861 5861 5862 5863 5864 5865 5867 5867 5868
5898 5899 5900 5900 5900 5901 5902 5901 5899 5898 5898 5897 5896 5895 5893 5892 5891 5890 5888 5887 5886 5885 5884 5883 5881 5881 5880 5879 5878 5877 5876 5874 5873 5873 5872 5870 5869 5868 5866 5864 5862 5861 5862 5863 5864 5865 5866 5867 5868
5898 5899 5900 5901 5902 5903 5902 5901 5898 5898 5897 5896 5895 5895 5893 5892 5891 5890 5888 5887 5886 5885 5884 5882 5881 5880 5879 5878 5877 5876 5876 5875 5874 5873 5871 5870 5869 5868 5866 5865 5864 5863 5863 5863 5864 5865 5866 5867 5868
5897 5898 5900 5900 5902 5902 5902 5901 5899 5898 5897 5896 5895 5893 5891 5891 5890 5889 5887 5886 5885 5885 5883 5882 5881 5880 5879 5878 5877 5876 5875 5875 5874 5873 5871 5870 5869 5868 5867 5866 5865 5864 5864 5864 5865 5865 5866 5867 5868
5896 5897 5899 5900 5902 5902 5901 5900 5899 5897 5895 5895 5894 5892 5891 5891 5889 5888 5887 5886 5885 5884 5883 5881 5880 5879 5879 5878 5877 5876 5875 5874 5873 5872 5871 5870 5869 5868 5867 5866 5865 5865 5864 5865 5865 5865 5866 5867 5867
5896 5896 5897 5898 5900 5901 5900 5898 5898 5896 5895 5894 5893 5892 5890 5890 5889 5887 5886 5885 5884 5883 5882 5881 5880 5879 5878 5877 5876 5875 5874 5874 5873 5872 5871 5870 5869 5868 5867 5867 5866 5865 5864 5865 5865 5865 5866 5867 5867
5894 5896 5897 5897 5899 5899 5898 5897 5897 5896 5894 5894 5892 5891 5889 5889 5888 5887 5886 5885 5884 5883 5881 5880 5879 5878 5878 5877 5875 5875 5874 5873 5872 5871 5870 5869 5869 5868 5867 5867 5866 5865 5865 5865 5865 5866 5866 5867 5867
5893 5895 5896 5897 5898 5898 5897 5896 5895 5894 5893 5892 5891 5890 5889 5888 5887 5886 5885 5884 5883 5882 5881 5880 5879 5878 5877 5876 5875 5874 5873 5872 5871 5871 5870 5869 5868 5867 5867 5866 5866 5866 5865 5865 5865 5865 5866 5866 5867
5892 5893 5895 5895 5895 5895 5894 5894 5893 5892 5892 5890 5890 5889 5887 5886 5886 5885 5884 5883 5883 5882 5880 5879 5878 5877 5876 5875 5873 5873 5872 5871 5870 5870 5869 5868 5867 5867 5866 5866 5865 5865 5864 5864 5864 5865 5865 5866 5866
5890 5891 5892 5892 5892 5892 5892 5892 5891 5891 5890 5888 5888 5887 5886 5885 5885 5884 5883 5882 5882 5880 5879 5878 5877 5876 5875 5874 5872 5871 5871 5870 5869 5868 5868 5867 5866 5866 5865 5865 5865 5864 5864 5864 5864 5864 5865 5865 5866
5887 5888 5888 5889 5890 5889 5890 5890 5889 5888 5887 5886 5886 5886 5885 5884 5884 5883 5882 5880 5880 5879 5878 5877 5876 5875 5874 5873 5872 5870 5869 5869 5868 5867 5866 5865 5865 5865 5864 5864 5864 5864 5863 5862 5862 5863 5864 5865 5865
5885 5886 5886 5886 5887 5887 5887 5887 5887 5886 5886 5884 5884 5883 5883 5882 5881 5880 5880 5880 5879 5878 5877 5876 5875 5874 5873 5872 5871 5869 5868 5867 5866 5866 5865 5864 5864 5863 5863 5863 5862 5863 5862 5861 5861 5862 5863 5863 5864
5882 5883 5883 5884 5884 5883 5884 5884 5884 5883 5883 5882 5881 5881 5880 5879 5879 5878 5878 5878 5877 5876 5875 5874 5873 5872 5871 5870 5870 5868 5867 5866 5865 5864 5863 5862 5862 5862 5861 5861 5861 5861 5861 5861 5861 5861 5862 5862 5863
5878 5880 5880 5880 5881 5881 5881 5881 5881 5881 5880 5880 5879 5879 5878 5877 5877 5876 5876 5875 5875 5874 5873 5872 5871 5871 5870 5869 5868 5867 5866 5865 5864 5863 5862 5861 5860 5860 5860 5860 5860 5860 5860 5860 5860 5860 5861 5861 5861
5875 5876 5877 5878 5878 5878 5879 5878 5877 5877 5877 5876 5876 5875 5875 5875 5874 5873 5873 5873 5872 5872 5871 5870 5869 5868 5867 5867 5866 5865 5864 5863 5862 5861 5860 5860 5859 5858 5858 5858 5858 5859 5859 5859 5859 5859 5859 5860 5860
5873 5874 5875 5876 5875 5875 5875 5875 5875 5874 5873 5872 5872 5872 5871 5871 5871 5871 5870 5870 5869 5869 5868 5867 5866 5866 5865 5864 5864 5863 5862 5861 5860 5860 5859 5858 5857 5856 5856 5857 5856 5857 5857 5857 5857 5858 5858 5858 5858
5871 5873 5873 5873 5873 5872 5872 5872 5871 5870 5869 5869 5868 5868 5868 5868 5868 5867 5867 5866 5866 5866 5865 5864 5863 5863 5862 5862 5861 5861 5860 5859 5858 5857 5857 5856 5855 5854 5854 5854 5854 5855 5855 5855 5855 5856 5856 5856 5856
5867 5869 5870 5870 5871 5869 5869 5869 5868 5867 5866 5865 5865 5866 5865 5865 5864 5864 5863 5863 5863 5862 5862 5861 5860 5859 5859 5859 5858 5858 5857 5857 5856 5855 5854 5854 5853 5852 5852 5852 5852 5852 5852 5853 5853 5853 5854 5854 5854
5863 5865 5866 5866 5866 5866 5865 5865 5864 5864 5863 5863 5862 5861 5861 5861 5860 5860 5860 5859 5859 5858 5858 5858 5857 5856 5856 5855 5855 5855 5854 5853 5853 5852 5851 5851 5850 5850 5849 5849 5849 5850 5850 5850 5850 5851 5851 5851 5851
5859 5860 5861 5861 5861 5861 5861 5860 5860 5860 5859 5859 5858 5858 5858 5857 5856 5855 5855 5855 5855 5854 5854 5854 5853 5853 5852 5852 5852 5851 5850 5850 5850 5849 5848 5848 5847 5847 5846 5846 5846 5847 5847 5847 5848 5848 5849 5849 5849
5855 5856 5857 5857 5857 5857 5858 5857 5857 5856 5855 5855 5855 5854 5854 5853 5851 5850 5850 5850 5850 5850 5850 5849 5849 5849 5848 5848 5848 5847 5847 5846 5846 5845 5845 5844 5843 5843 5843 5843 5843 5843 5844 5844 5845 5845 5846 5846 5846
5851 5852 5852 5852 5852 5853 5853 5853 5853 5852 5851 5851 5850 5849 5849 5848 5846 5846 5846 5845 5845 5845 5845 5845 5845 5845 5844 5844 5843 5843 5843 5842 5842 5841 5841 5840 5840 5839 5839 5839 5839 5839 5840 5841 5841 5842 5842 5843 5843
5847 5848 5848 5848 5848 5849 5849 5848 5848 5847 5847 5846 5845 5844 5844 5843 5842 5841 5841 5841 5841 5840 5840 5840 5840 5840 5839 5839 5839 5839 5838 5838 5838 5837 5837 5836 5836 5836 5835 5835 5835 5836 5836 5837 5838 5838 5839 5839 5840
5843 5844 5844 5844 5844 5844 5845 5843 5844 5842 5842 5840 5839 5839 5839 5838 5837 5837 5836 5836 5836 5835 5835 5835 5834 5835 5835 5835 5834 5834 5834 5834 5833 5833 5833 5832 5832 5832 5832 5832 5832 5832 5832 5833 5833 5834 5835 5835 5835
5838 5840 5841 5841 5842 5842 5840 5838 5839 5838 5837 5836 5834 5834 5834 5833 5832 5831 5831 5831 5830 5830 5830 5829 5829 5830 5830 5830 5830 5829 5829 5829 5828 5828 5828 5828 5827 5827 5827 5828 5828 5828 5828 5828 5829 5829 5830 5830 5831
5834 5835 5837 5838 5837 5837 5836 5835 5833 5832 5832 5831 5830 5829 5829 5828 5827 5826 5825 5825 5825 5824 5824 5824 5824 5825 5825 5824 5824 5824 5824 5823 5823 5823 5824 5823 5823 5823 5823 5823 5823 5823 5824 5824 5824 5824 5825 5825 5826
5830 5831 5832 5833 5832 5832 5832 5830 5829 5827 5825 5825 5824 5823 5823 5822 5821 5820 5819 5819 5819 5819 5819 5818 5818 5818 5819 5819 5819 5818 5818 5818 5818 5818 5819 5818 5818 5819 5819 5819 5819 5818 5819 5819 5819 5820 5820 5820 5821
5825 5826 5826 5827 5827 5826 5825 5825 5821 5820 5819 5818 5818 5817 5817 5816 5815 5814 5813 5812 5812 5812 5812 5812 5812 5813 5813 5813 5813 5813 5813 5813 5813 5813 5814 5814 5814 5814 5814 5814 5814 5814 5814 5814 5815 5815 5815 5815 5815
5820 5820 5821 5821 5820 5820 5820 5820 5816 5815 5813 5811 5811 5811 5810 5809 5808 5807 5806 5806 5806 5806 5805 5804 5805 5806 5806 5806 5806 5807 5807 5807 5808 5808 5808 5808 5808 5808 5809 5809 5809 5809 5809 5809 5809 5810 5810 5810 5810